Terminal Aerodrome Forecast
Issued by NWS Atlanta, GA

Home | Current Version | Previous Version | Text Only | Print | Product List | Glossary On
Versions: 1 2 3 4 5 6 7 8 9 10 11 12 13 14 15 16 17 18 19 20 21 22 23 24 25 26 27 28 29 30 31 32 33 34
307
FTAK31 PAJN 071132
TAFAHN
TAF
PAHN 071132Z 0712/0812 30012KT P6SM OVC018
     FM071900 30012KT P6SM -SN BKN007 BKN015 OVC025
     FM080100 32010G20KT 4SM -SN SCT007 OVC015
      AMD LTD TO CLD VIS AND WIND=

USA.gov is the U.S. government's official web portal to all federal, state and local government web resources and services.